<?xml version="1.0" encoding="UTF-8" standalone="no" ?>
<gpx xmlns="http://www.topografix.com/GPX/1/1" creator="MapSource 6.11.6" version="1.1" xmlns:xsi="http://www.w3.org/2001/XMLSchema-instance" xsi:schemaLocation="http://www.topografix.com/GPX/1/1 http://www.topografix.com/GPX/1/1/gpx.xsd">

  <metadata>
    <link href="http://www.garmin.com">
      <text>Garmin International</text>
    </link>
    <time>2009-11-07T16:18:52Z</time>
    <bounds maxlat="50.543228" maxlon="6.268628" minlat="50.506815" minlon="6.239558"/>
  </metadata>

  <trk>
    <name>Narzissenweg 1</name>
    <extensions>
      <gpxx:TrackExtension xmlns:gpxx="http://www.garmin.com/xmlschemas/GpxExtensions/v3" xmlns:xsi="http://www.w3.org/2001/XMLSchema-instance" xsi:schemaLocation="http://www.garmin.com/xmlschemas/GpxExtensions/v3 http://www.garmin.com/xmlschemas/GpxExtensions/v3/GpxExtensionsv3.xsd">
        <gpxx:DisplayColor>White</gpxx:DisplayColor>
      </gpxx:TrackExtension>
    </extensions>
    <trkseg>
      <trkpt lat="50.542649" lon="6.239682">
        <ele>0.000000</ele>
        <time>2009-09-18T15:10:20Z</time>
      </trkpt>
      <trkpt lat="50.542778" lon="6.239558">
        <ele>0.000000</ele>
        <time>2009-09-18T15:10:20Z</time>
      </trkpt>
      <trkpt lat="50.543163" lon="6.240390">
        <ele>0.000000</ele>
        <time>2009-09-18T15:10:20Z</time>
      </trkpt>
      <trkpt lat="50.543228" lon="6.240808">
        <ele>0.000000</ele>
        <time>2009-09-18T15:10:20Z</time>
      </trkpt>
      <trkpt lat="50.543187" lon="6.241018">
        <ele>0.000000</ele>
        <time>2009-09-18T15:10:20Z</time>
      </trkpt>
      <trkpt lat="50.542870" lon="6.241720">
        <ele>0.000000</ele>
        <time>2009-09-18T15:10:20Z</time>
      </trkpt>
      <trkpt lat="50.542710" lon="6.241871">
        <ele>0.000000</ele>
        <time>2009-09-18T15:10:20Z</time>
      </trkpt>
      <trkpt lat="50.542362" lon="6.242085">
        <ele>0.000000</ele>
        <time>2009-09-18T15:10:20Z</time>
      </trkpt>
      <trkpt lat="50.542103" lon="6.242166">
        <ele>0.000000</ele>
        <time>2009-09-18T15:10:20Z</time>
      </trkpt>
      <trkpt lat="50.541649" lon="6.242144">
        <ele>0.000000</ele>
        <time>2009-09-18T15:10:20Z</time>
      </trkpt>
      <trkpt lat="50.541315" lon="6.241946">
        <ele>0.000000</ele>
        <time>2009-09-18T15:10:20Z</time>
      </trkpt>
      <trkpt lat="50.541080" lon="6.241726">
        <ele>0.000000</ele>
        <time>2009-09-18T15:10:20Z</time>
      </trkpt>
      <trkpt lat="50.540678" lon="6.241195">
        <ele>0.000000</ele>
        <time>2009-09-18T15:10:20Z</time>
      </trkpt>
      <trkpt lat="50.540347" lon="6.240674">
        <ele>0.000000</ele>
        <time>2009-09-18T15:10:20Z</time>
      </trkpt>
      <trkpt lat="50.540085" lon="6.240481">
        <ele>0.000000</ele>
        <time>2009-09-18T15:10:20Z</time>
      </trkpt>
      <trkpt lat="50.540033" lon="6.240497">
        <ele>0.000000</ele>
        <time>2009-09-18T15:10:20Z</time>
      </trkpt>
      <trkpt lat="50.539887" lon="6.240975">
        <ele>0.000000</ele>
        <time>2009-09-18T15:10:20Z</time>
      </trkpt>
      <trkpt lat="50.539866" lon="6.241130">
        <ele>0.000000</ele>
        <time>2009-09-18T15:10:20Z</time>
      </trkpt>
      <trkpt lat="50.539801" lon="6.241157">
        <ele>0.000000</ele>
        <time>2009-09-18T15:10:20Z</time>
      </trkpt>
      <trkpt lat="50.539778" lon="6.240942">
        <ele>0.000000</ele>
        <time>2009-09-18T15:10:20Z</time>
      </trkpt>
      <trkpt lat="50.539812" lon="6.240556">
        <ele>0.000000</ele>
        <time>2009-09-18T15:10:20Z</time>
      </trkpt>
      <trkpt lat="50.539832" lon="6.240492">
        <ele>0.000000</ele>
        <time>2009-09-18T15:10:20Z</time>
      </trkpt>
      <trkpt lat="50.539842" lon="6.240288">
        <ele>0.000000</ele>
        <time>2009-09-18T15:10:20Z</time>
      </trkpt>
      <trkpt lat="50.539795" lon="6.240100">
        <ele>0.000000</ele>
        <time>2009-09-18T15:10:20Z</time>
      </trkpt>
      <trkpt lat="50.539703" lon="6.240009">
        <ele>0.000000</ele>
        <time>2009-09-18T15:10:20Z</time>
      </trkpt>
      <trkpt lat="50.539160" lon="6.239918">
        <ele>0.000000</ele>
        <time>2009-09-18T15:10:20Z</time>
      </trkpt>
      <trkpt lat="50.538980" lon="6.239945">
        <ele>0.000000</ele>
        <time>2009-09-18T15:10:20Z</time>
      </trkpt>
      <trkpt lat="50.538721" lon="6.239907">
        <ele>0.000000</ele>
        <time>2009-09-18T15:10:20Z</time>
      </trkpt>
      <trkpt lat="50.538380" lon="6.240191">
        <ele>0.000000</ele>
        <time>2009-09-18T15:10:20Z</time>
      </trkpt>
      <trkpt lat="50.538206" lon="6.240454">
        <ele>0.000000</ele>
        <time>2009-09-18T15:10:20Z</time>
      </trkpt>
      <trkpt lat="50.538063" lon="6.240599">
        <ele>0.000000</ele>
        <time>2009-09-18T15:10:20Z</time>
      </trkpt>
      <trkpt lat="50.536955" lon="6.240980">
        <ele>0.000000</ele>
        <time>2009-09-18T15:10:20Z</time>
      </trkpt>
      <trkpt lat="50.536430" lon="6.241141">
        <ele>0.000000</ele>
        <time>2009-09-18T15:10:20Z</time>
      </trkpt>
      <trkpt lat="50.536276" lon="6.241399">
        <ele>0.000000</ele>
        <time>2009-09-18T15:10:20Z</time>
      </trkpt>
      <trkpt lat="50.536099" lon="6.241463">
        <ele>0.000000</ele>
        <time>2009-09-18T15:10:20Z</time>
      </trkpt>
      <trkpt lat="50.535945" lon="6.241431">
        <ele>0.000000</ele>
        <time>2009-09-18T15:10:20Z</time>
      </trkpt>
      <trkpt lat="50.535390" lon="6.241361">
        <ele>0.000000</ele>
        <time>2009-09-18T15:10:20Z</time>
      </trkpt>
      <trkpt lat="50.534851" lon="6.241559">
        <ele>0.000000</ele>
        <time>2009-09-18T15:10:20Z</time>
      </trkpt>
      <trkpt lat="50.534609" lon="6.241876">
        <ele>0.000000</ele>
        <time>2009-09-18T15:10:20Z</time>
      </trkpt>
      <trkpt lat="50.534305" lon="6.242520">
        <ele>0.000000</ele>
        <time>2009-09-18T15:10:20Z</time>
      </trkpt>
      <trkpt lat="50.534119" lon="6.243095">
        <ele>0.000000</ele>
        <time>2009-09-18T15:10:20Z</time>
      </trkpt>
      <trkpt lat="50.533831" lon="6.243593">
        <ele>0.000000</ele>
        <time>2009-09-18T15:10:20Z</time>
      </trkpt>
      <trkpt lat="50.533647" lon="6.244011">
        <ele>0.000000</ele>
        <time>2009-09-18T15:10:20Z</time>
      </trkpt>
      <trkpt lat="50.533364" lon="6.244569">
        <ele>0.000000</ele>
        <time>2009-09-18T15:10:20Z</time>
      </trkpt>
      <trkpt lat="50.533211" lon="6.244789">
        <ele>0.000000</ele>
        <time>2009-09-18T15:10:20Z</time>
      </trkpt>
      <trkpt lat="50.533153" lon="6.245148">
        <ele>0.000000</ele>
        <time>2009-09-18T15:10:20Z</time>
      </trkpt>
      <trkpt lat="50.533040" lon="6.245159">
        <ele>0.000000</ele>
        <time>2009-09-18T15:10:20Z</time>
      </trkpt>
      <trkpt lat="50.532730" lon="6.244912">
        <ele>0.000000</ele>
        <time>2009-09-18T15:10:20Z</time>
      </trkpt>
      <trkpt lat="50.532481" lon="6.244912">
        <ele>0.000000</ele>
        <time>2009-09-18T15:10:20Z</time>
      </trkpt>
      <trkpt lat="50.532225" lon="6.244746">
        <ele>0.000000</ele>
        <time>2009-09-18T15:10:20Z</time>
      </trkpt>
      <trkpt lat="50.531956" lon="6.244853">
        <ele>0.000000</ele>
        <time>2009-09-18T15:10:20Z</time>
      </trkpt>
      <trkpt lat="50.531769" lon="6.245089">
        <ele>0.000000</ele>
        <time>2009-09-18T15:10:20Z</time>
      </trkpt>
      <trkpt lat="50.531482" lon="6.245341">
        <ele>0.000000</ele>
        <time>2009-09-18T15:10:20Z</time>
      </trkpt>
      <trkpt lat="50.531243" lon="6.245937">
        <ele>0.000000</ele>
        <time>2009-09-18T15:10:20Z</time>
      </trkpt>
      <trkpt lat="50.531069" lon="6.246489">
        <ele>0.000000</ele>
        <time>2009-09-18T15:10:20Z</time>
      </trkpt>
      <trkpt lat="50.531056" lon="6.246870">
        <ele>0.000000</ele>
        <time>2009-09-18T15:10:20Z</time>
      </trkpt>
      <trkpt lat="50.530937" lon="6.247262">
        <ele>0.000000</ele>
        <time>2009-09-18T15:10:20Z</time>
      </trkpt>
      <trkpt lat="50.530943" lon="6.247787">
        <ele>0.000000</ele>
        <time>2009-09-18T15:10:20Z</time>
      </trkpt>
      <trkpt lat="50.531134" lon="6.248286">
        <ele>0.000000</ele>
        <time>2009-09-18T15:10:20Z</time>
      </trkpt>
      <trkpt lat="50.531182" lon="6.248522">
        <ele>0.000000</ele>
        <time>2009-09-18T15:10:20Z</time>
      </trkpt>
      <trkpt lat="50.531206" lon="6.248753">
        <ele>0.000000</ele>
        <time>2009-09-18T15:10:20Z</time>
      </trkpt>
      <trkpt lat="50.531192" lon="6.248914">
        <ele>0.000000</ele>
        <time>2009-09-18T15:10:20Z</time>
      </trkpt>
      <trkpt lat="50.531161" lon="6.249053">
        <ele>0.000000</ele>
        <time>2009-09-18T15:10:20Z</time>
      </trkpt>
      <trkpt lat="50.530950" lon="6.249231">
        <ele>0.000000</ele>
        <time>2009-09-18T15:10:20Z</time>
      </trkpt>
      <trkpt lat="50.530749" lon="6.249349">
        <ele>0.000000</ele>
        <time>2009-09-18T15:10:20Z</time>
      </trkpt>
      <trkpt lat="50.530480" lon="6.249440">
        <ele>0.000000</ele>
        <time>2009-09-18T15:10:20Z</time>
      </trkpt>
      <trkpt lat="50.530125" lon="6.249418">
        <ele>0.000000</ele>
        <time>2009-09-18T15:10:20Z</time>
      </trkpt>
      <trkpt lat="50.529552" lon="6.249300">
        <ele>0.000000</ele>
        <time>2009-09-18T15:10:20Z</time>
      </trkpt>
      <trkpt lat="50.529245" lon="6.249349">
        <ele>0.000000</ele>
        <time>2009-09-18T15:10:20Z</time>
      </trkpt>
      <trkpt lat="50.528236" lon="6.249735">
        <ele>0.000000</ele>
        <time>2009-09-18T15:10:20Z</time>
      </trkpt>
      <trkpt lat="50.527828" lon="6.249890">
        <ele>0.000000</ele>
        <time>2009-09-18T15:10:20Z</time>
      </trkpt>
      <trkpt lat="50.527612" lon="6.249944">
        <ele>0.000000</ele>
        <time>2009-09-18T15:10:20Z</time>
      </trkpt>
      <trkpt lat="50.527421" lon="6.250046">
        <ele>0.000000</ele>
        <time>2009-09-18T15:10:20Z</time>
      </trkpt>
      <trkpt lat="50.527103" lon="6.250389">
        <ele>0.000000</ele>
        <time>2009-09-18T15:10:20Z</time>
      </trkpt>
      <trkpt lat="50.526670" lon="6.251081">
        <ele>0.000000</ele>
        <time>2009-09-18T15:10:20Z</time>
      </trkpt>
      <trkpt lat="50.526057" lon="6.252084">
        <ele>0.000000</ele>
        <time>2009-09-18T15:10:20Z</time>
      </trkpt>
      <trkpt lat="50.525982" lon="6.252401">
        <ele>0.000000</ele>
        <time>2009-09-18T15:10:20Z</time>
      </trkpt>
      <trkpt lat="50.525968" lon="6.252707">
        <ele>0.000000</ele>
        <time>2009-09-18T15:10:20Z</time>
      </trkpt>
      <trkpt lat="50.526009" lon="6.253012">
        <ele>0.000000</ele>
        <time>2009-09-18T15:10:20Z</time>
      </trkpt>
      <trkpt lat="50.526217" lon="6.253635">
        <ele>0.000000</ele>
        <time>2009-09-18T15:10:20Z</time>
      </trkpt>
      <trkpt lat="50.526459" lon="6.254107">
        <ele>0.000000</ele>
        <time>2009-09-18T15:10:20Z</time>
      </trkpt>
      <trkpt lat="50.526681" lon="6.254718">
        <ele>0.000000</ele>
        <time>2009-09-18T15:10:20Z</time>
      </trkpt>
      <trkpt lat="50.526694" lon="6.254906">
        <ele>0.000000</ele>
        <time>2009-09-18T15:10:20Z</time>
      </trkpt>
      <trkpt lat="50.526647" lon="6.255695">
        <ele>0.000000</ele>
        <time>2009-09-18T15:10:20Z</time>
      </trkpt>
      <trkpt lat="50.526558" lon="6.256242">
        <ele>0.000000</ele>
        <time>2009-09-18T15:10:20Z</time>
      </trkpt>
      <trkpt lat="50.526398" lon="6.257384">
        <ele>0.000000</ele>
        <time>2009-09-18T15:10:20Z</time>
      </trkpt>
      <trkpt lat="50.525763" lon="6.257470">
        <ele>0.000000</ele>
        <time>2009-09-18T15:10:20Z</time>
      </trkpt>
      <trkpt lat="50.524866" lon="6.257272">
        <ele>0.000000</ele>
        <time>2009-09-18T15:10:20Z</time>
      </trkpt>
      <trkpt lat="50.524184" lon="6.257122">
        <ele>0.000000</ele>
        <time>2009-09-18T15:10:20Z</time>
      </trkpt>
      <trkpt lat="50.523915" lon="6.256912">
        <ele>0.000000</ele>
        <time>2009-09-18T15:10:20Z</time>
      </trkpt>
      <trkpt lat="50.523683" lon="6.256644">
        <ele>0.000000</ele>
        <time>2009-09-18T15:10:20Z</time>
      </trkpt>
      <trkpt lat="50.523410" lon="6.256542">
        <ele>0.000000</ele>
        <time>2009-09-18T15:10:20Z</time>
      </trkpt>
      <trkpt lat="50.523332" lon="6.256456">
        <ele>0.000000</ele>
        <time>2009-09-18T15:10:20Z</time>
      </trkpt>
      <trkpt lat="50.523212" lon="6.256295">
        <ele>0.000000</ele>
        <time>2009-09-18T15:10:20Z</time>
      </trkpt>
      <trkpt lat="50.523325" lon="6.256097">
        <ele>0.000000</ele>
        <time>2009-09-18T15:10:20Z</time>
      </trkpt>
      <trkpt lat="50.523379" lon="6.255829">
        <ele>0.000000</ele>
        <time>2009-09-18T15:10:20Z</time>
      </trkpt>
      <trkpt lat="50.523393" lon="6.255561">
        <ele>0.000000</ele>
        <time>2009-09-18T15:10:20Z</time>
      </trkpt>
      <trkpt lat="50.523304" lon="6.255249">
        <ele>0.000000</ele>
        <time>2009-09-18T15:10:20Z</time>
      </trkpt>
      <trkpt lat="50.523113" lon="6.254804">
        <ele>0.000000</ele>
        <time>2009-09-18T15:10:20Z</time>
      </trkpt>
      <trkpt lat="50.522861" lon="6.254273">
        <ele>0.000000</ele>
        <time>2009-09-18T15:10:20Z</time>
      </trkpt>
      <trkpt lat="50.522418" lon="6.253458">
        <ele>0.000000</ele>
        <time>2009-09-18T15:10:20Z</time>
      </trkpt>
      <trkpt lat="50.522240" lon="6.253152">
        <ele>0.000000</ele>
        <time>2009-09-18T15:10:20Z</time>
      </trkpt>
      <trkpt lat="50.521367" lon="6.251961">
        <ele>0.000000</ele>
        <time>2009-09-18T15:10:20Z</time>
      </trkpt>
      <trkpt lat="50.520890" lon="6.251650">
        <ele>0.000000</ele>
        <time>2009-09-18T15:10:20Z</time>
      </trkpt>
      <trkpt lat="50.519938" lon="6.251172">
        <ele>0.000000</ele>
        <time>2009-09-18T15:10:20Z</time>
      </trkpt>
      <trkpt lat="50.519433" lon="6.251097">
        <ele>0.000000</ele>
        <time>2009-09-18T15:10:20Z</time>
      </trkpt>
      <trkpt lat="50.518697" lon="6.250625">
        <ele>0.000000</ele>
        <time>2009-09-18T15:10:20Z</time>
      </trkpt>
      <trkpt lat="50.518093" lon="6.249644">
        <ele>0.000000</ele>
        <time>2009-09-18T15:10:20Z</time>
      </trkpt>
      <trkpt lat="50.517428" lon="6.248522">
        <ele>0.000000</ele>
        <time>2009-09-18T15:10:20Z</time>
      </trkpt>
      <trkpt lat="50.516698" lon="6.248072">
        <ele>0.000000</ele>
        <time>2009-09-18T15:10:20Z</time>
      </trkpt>
      <trkpt lat="50.516067" lon="6.248088">
        <ele>0.000000</ele>
        <time>2009-09-18T15:10:20Z</time>
      </trkpt>
      <trkpt lat="50.515613" lon="6.248265">
        <ele>0.000000</ele>
        <time>2009-09-18T15:10:20Z</time>
      </trkpt>
      <trkpt lat="50.514989" lon="6.248635">
        <ele>0.000000</ele>
        <time>2009-09-18T15:10:20Z</time>
      </trkpt>
      <trkpt lat="50.514610" lon="6.249011">
        <ele>0.000000</ele>
        <time>2009-09-18T15:10:20Z</time>
      </trkpt>
      <trkpt lat="50.514549" lon="6.249381">
        <ele>0.000000</ele>
        <time>2009-09-18T15:10:20Z</time>
      </trkpt>
      <trkpt lat="50.514726" lon="6.250700">
        <ele>0.000000</ele>
        <time>2009-09-18T15:10:20Z</time>
      </trkpt>
      <trkpt lat="50.514753" lon="6.251537">
        <ele>0.000000</ele>
        <time>2009-09-18T15:10:20Z</time>
      </trkpt>
      <trkpt lat="50.514695" lon="6.252353">
        <ele>0.000000</ele>
        <time>2009-09-18T15:10:20Z</time>
      </trkpt>
      <trkpt lat="50.514492" lon="6.253046">
        <ele>0.000000</ele>
        <time>2009-09-18T15:10:20Z</time>
      </trkpt>
      <trkpt lat="50.514354" lon="6.253286">
        <ele>0.000000</ele>
        <time>2009-09-18T15:10:20Z</time>
      </trkpt>
      <trkpt lat="50.514129" lon="6.253340">
        <ele>0.000000</ele>
        <time>2009-09-18T15:10:20Z</time>
      </trkpt>
      <trkpt lat="50.513788" lon="6.253130">
        <ele>0.000000</ele>
        <time>2009-09-18T15:10:20Z</time>
      </trkpt>
      <trkpt lat="50.513450" lon="6.252868">
        <ele>0.000000</ele>
        <time>2009-09-18T15:10:20Z</time>
      </trkpt>
      <trkpt lat="50.513253" lon="6.252664">
        <ele>0.000000</ele>
        <time>2009-09-18T15:10:20Z</time>
      </trkpt>
      <trkpt lat="50.512922" lon="6.252256">
        <ele>0.000000</ele>
        <time>2009-09-18T15:10:20Z</time>
      </trkpt>
      <trkpt lat="50.512615" lon="6.251773">
        <ele>0.000000</ele>
        <time>2009-09-18T15:10:20Z</time>
      </trkpt>
      <trkpt lat="50.512120" lon="6.250786">
        <ele>0.000000</ele>
        <time>2009-09-18T15:10:20Z</time>
      </trkpt>
      <trkpt lat="50.511813" lon="6.249917">
        <ele>0.000000</ele>
        <time>2009-09-18T15:10:20Z</time>
      </trkpt>
      <trkpt lat="50.511485" lon="6.249290">
        <ele>0.000000</ele>
        <time>2009-09-18T15:10:20Z</time>
      </trkpt>
      <trkpt lat="50.510998" lon="6.248946">
        <ele>0.000000</ele>
        <time>2009-09-18T15:10:20Z</time>
      </trkpt>
      <trkpt lat="50.510493" lon="6.248758">
        <ele>0.000000</ele>
        <time>2009-09-18T15:10:20Z</time>
      </trkpt>
      <trkpt lat="50.509841" lon="6.248630">
        <ele>0.000000</ele>
        <time>2009-09-18T15:10:20Z</time>
      </trkpt>
      <trkpt lat="50.509353" lon="6.248592">
        <ele>0.000000</ele>
        <time>2009-09-18T15:10:20Z</time>
      </trkpt>
      <trkpt lat="50.509647" lon="6.248732">
        <ele>0.000000</ele>
        <time>2009-09-18T15:10:20Z</time>
      </trkpt>
      <trkpt lat="50.509814" lon="6.248796">
        <ele>0.000000</ele>
        <time>2009-09-18T15:10:20Z</time>
      </trkpt>
      <trkpt lat="50.510111" lon="6.248984">
        <ele>0.000000</ele>
        <time>2009-09-18T15:10:20Z</time>
      </trkpt>
      <trkpt lat="50.510240" lon="6.249091">
        <ele>0.000000</ele>
        <time>2009-09-18T15:10:20Z</time>
      </trkpt>
      <trkpt lat="50.510479" lon="6.249499">
        <ele>0.000000</ele>
        <time>2009-09-18T15:10:20Z</time>
      </trkpt>
      <trkpt lat="50.510558" lon="6.249703">
        <ele>0.000000</ele>
        <time>2009-09-18T15:10:20Z</time>
      </trkpt>
      <trkpt lat="50.510639" lon="6.249794">
        <ele>0.000000</ele>
        <time>2009-09-18T15:10:20Z</time>
      </trkpt>
      <trkpt lat="50.510708" lon="6.249939">
        <ele>0.000000</ele>
        <time>2009-09-18T15:10:20Z</time>
      </trkpt>
      <trkpt lat="50.510831" lon="6.250078">
        <ele>0.000000</ele>
        <time>2009-09-18T15:10:20Z</time>
      </trkpt>
      <trkpt lat="50.510885" lon="6.250228">
        <ele>0.000000</ele>
        <time>2009-09-18T15:10:20Z</time>
      </trkpt>
      <trkpt lat="50.510926" lon="6.250400">
        <ele>0.000000</ele>
        <time>2009-09-18T15:10:20Z</time>
      </trkpt>
      <trkpt lat="50.510933" lon="6.250566">
        <ele>0.000000</ele>
        <time>2009-09-18T15:10:20Z</time>
      </trkpt>
      <trkpt lat="50.510807" lon="6.251178">
        <ele>0.000000</ele>
        <time>2009-09-18T15:10:20Z</time>
      </trkpt>
      <trkpt lat="50.510735" lon="6.251339">
        <ele>0.000000</ele>
        <time>2009-09-18T15:10:20Z</time>
      </trkpt>
      <trkpt lat="50.510599" lon="6.251983">
        <ele>0.000000</ele>
        <time>2009-09-18T15:10:20Z</time>
      </trkpt>
      <trkpt lat="50.510486" lon="6.252283">
        <ele>0.000000</ele>
        <time>2009-09-18T15:10:20Z</time>
      </trkpt>
      <trkpt lat="50.510315" lon="6.252658">
        <ele>0.000000</ele>
        <time>2009-09-18T15:10:20Z</time>
      </trkpt>
      <trkpt lat="50.510203" lon="6.252986">
        <ele>0.000000</ele>
        <time>2009-09-18T15:10:20Z</time>
      </trkpt>
      <trkpt lat="50.510104" lon="6.253243">
        <ele>0.000000</ele>
        <time>2009-09-18T15:10:20Z</time>
      </trkpt>
      <trkpt lat="50.510005" lon="6.253431">
        <ele>0.000000</ele>
        <time>2009-09-18T15:10:20Z</time>
      </trkpt>
      <trkpt lat="50.509705" lon="6.253817">
        <ele>0.000000</ele>
        <time>2009-09-18T15:10:20Z</time>
      </trkpt>
      <trkpt lat="50.508981" lon="6.254488">
        <ele>0.000000</ele>
        <time>2009-09-18T15:10:20Z</time>
      </trkpt>
      <trkpt lat="50.508811" lon="6.254708">
        <ele>0.000000</ele>
        <time>2009-09-18T15:10:20Z</time>
      </trkpt>
      <trkpt lat="50.508702" lon="6.254906">
        <ele>0.000000</ele>
        <time>2009-09-18T15:10:20Z</time>
      </trkpt>
      <trkpt lat="50.508565" lon="6.255346">
        <ele>0.000000</ele>
        <time>2009-09-18T15:10:20Z</time>
      </trkpt>
      <trkpt lat="50.508402" lon="6.256183">
        <ele>0.000000</ele>
        <time>2009-09-18T15:10:20Z</time>
      </trkpt>
      <trkpt lat="50.508224" lon="6.256961">
        <ele>0.000000</ele>
        <time>2009-09-18T15:10:20Z</time>
      </trkpt>
      <trkpt lat="50.508163" lon="6.257154">
        <ele>0.000000</ele>
        <time>2009-09-18T15:10:20Z</time>
      </trkpt>
      <trkpt lat="50.508132" lon="6.257395">
        <ele>0.000000</ele>
        <time>2009-09-18T15:10:20Z</time>
      </trkpt>
      <trkpt lat="50.508023" lon="6.257819">
        <ele>0.000000</ele>
        <time>2009-09-18T15:10:20Z</time>
      </trkpt>
      <trkpt lat="50.507712" lon="6.258870">
        <ele>0.000000</ele>
        <time>2009-09-18T15:10:20Z</time>
      </trkpt>
      <trkpt lat="50.507398" lon="6.259954">
        <ele>0.000000</ele>
        <time>2009-09-18T15:10:20Z</time>
      </trkpt>
      <trkpt lat="50.507088" lon="6.261306">
        <ele>0.000000</ele>
        <time>2009-09-18T15:10:20Z</time>
      </trkpt>
      <trkpt lat="50.506870" lon="6.262432">
        <ele>0.000000</ele>
        <time>2009-09-18T15:10:20Z</time>
      </trkpt>
      <trkpt lat="50.506825" lon="6.263355">
        <ele>0.000000</ele>
        <time>2009-09-18T15:10:20Z</time>
      </trkpt>
      <trkpt lat="50.506815" lon="6.263848">
        <ele>0.000000</ele>
        <time>2009-09-18T15:10:20Z</time>
      </trkpt>
      <trkpt lat="50.506904" lon="6.265404">
        <ele>0.000000</ele>
        <time>2009-09-18T15:10:20Z</time>
      </trkpt>
      <trkpt lat="50.506982" lon="6.265592">
        <ele>0.000000</ele>
        <time>2009-09-18T15:10:20Z</time>
      </trkpt>
      <trkpt lat="50.507442" lon="6.266076">
        <ele>0.000000</ele>
        <time>2009-09-18T15:10:20Z</time>
      </trkpt>
      <trkpt lat="50.509875" lon="6.268628">
        <ele>0.000000</ele>
        <time>2009-09-18T15:10:20Z</time>
      </trkpt>
      <trkpt lat="50.510227" lon="6.267673">
        <ele>0.000000</ele>
        <time>2009-09-18T15:10:20Z</time>
      </trkpt>
      <trkpt lat="50.511315" lon="6.264707">
        <ele>0.000000</ele>
        <time>2009-09-18T15:10:20Z</time>
      </trkpt>
      <trkpt lat="50.512171" lon="6.262325">
        <ele>0.000000</ele>
        <time>2009-09-18T15:10:20Z</time>
      </trkpt>
      <trkpt lat="50.512386" lon="6.261735">
        <ele>0.000000</ele>
        <time>2009-09-18T15:10:20Z</time>
      </trkpt>
      <trkpt lat="50.514069" lon="6.257175">
        <ele>0.000000</ele>
        <time>2009-09-18T15:10:20Z</time>
      </trkpt>
      <trkpt lat="50.515263" lon="6.253925">
        <ele>0.000000</ele>
        <time>2009-09-18T15:10:20Z</time>
      </trkpt>
      <trkpt lat="50.515347" lon="6.253619">
        <ele>0.000000</ele>
        <time>2009-09-18T15:10:20Z</time>
      </trkpt>
      <trkpt lat="50.515367" lon="6.253275">
        <ele>0.000000</ele>
        <time>2009-09-18T15:10:20Z</time>
      </trkpt>
      <trkpt lat="50.515306" lon="6.252986">
        <ele>0.000000</ele>
        <time>2009-09-18T15:10:20Z</time>
      </trkpt>
      <trkpt lat="50.515412" lon="6.252455">
        <ele>0.000000</ele>
        <time>2009-09-18T15:10:20Z</time>
      </trkpt>
      <trkpt lat="50.515439" lon="6.252202">
        <ele>0.000000</ele>
        <time>2009-09-18T15:10:20Z</time>
      </trkpt>
      <trkpt lat="50.515439" lon="6.251569">
        <ele>0.000000</ele>
        <time>2009-09-18T15:10:20Z</time>
      </trkpt>
      <trkpt lat="50.515453" lon="6.251210">
        <ele>0.000000</ele>
        <time>2009-09-18T15:10:20Z</time>
      </trkpt>
      <trkpt lat="50.515497" lon="6.250791">
        <ele>0.000000</ele>
        <time>2009-09-18T15:10:20Z</time>
      </trkpt>
      <trkpt lat="50.515497" lon="6.250556">
        <ele>0.000000</ele>
        <time>2009-09-18T15:10:20Z</time>
      </trkpt>
      <trkpt lat="50.515477" lon="6.250271">
        <ele>0.000000</ele>
        <time>2009-09-18T15:10:20Z</time>
      </trkpt>
      <trkpt lat="50.515480" lon="6.250035">
        <ele>0.000000</ele>
        <time>2009-09-18T15:10:20Z</time>
      </trkpt>
      <trkpt lat="50.515596" lon="6.249788">
        <ele>0.000000</ele>
        <time>2009-09-18T15:10:20Z</time>
      </trkpt>
      <trkpt lat="50.515767" lon="6.249627">
        <ele>0.000000</ele>
        <time>2009-09-18T15:10:20Z</time>
      </trkpt>
      <trkpt lat="50.515975" lon="6.249665">
        <ele>0.000000</ele>
        <time>2009-09-18T15:10:20Z</time>
      </trkpt>
      <trkpt lat="50.516468" lon="6.249884">
        <ele>0.000000</ele>
        <time>2009-09-18T15:10:20Z</time>
      </trkpt>
      <trkpt lat="50.517213" lon="6.250319">
        <ele>0.000000</ele>
        <time>2009-09-18T15:10:20Z</time>
      </trkpt>
      <trkpt lat="50.517885" lon="6.250926">
        <ele>0.000000</ele>
        <time>2009-09-18T15:10:20Z</time>
      </trkpt>
      <trkpt lat="50.518639" lon="6.251517">
        <ele>0.000000</ele>
        <time>2009-09-18T15:10:20Z</time>
      </trkpt>
      <trkpt lat="50.519191" lon="6.251736">
        <ele>0.000000</ele>
        <time>2009-09-18T15:10:20Z</time>
      </trkpt>
      <trkpt lat="50.519409" lon="6.251805">
        <ele>0.000000</ele>
        <time>2009-09-18T15:10:20Z</time>
      </trkpt>
      <trkpt lat="50.519691" lon="6.251833">
        <ele>0.000000</ele>
        <time>2009-09-18T15:10:20Z</time>
      </trkpt>
      <trkpt lat="50.520057" lon="6.251902">
        <ele>0.000000</ele>
        <time>2009-09-18T15:10:20Z</time>
      </trkpt>
      <trkpt lat="50.520610" lon="6.252074">
        <ele>0.000000</ele>
        <time>2009-09-18T15:10:20Z</time>
      </trkpt>
      <trkpt lat="50.520927" lon="6.252277">
        <ele>0.000000</ele>
        <time>2009-09-18T15:10:20Z</time>
      </trkpt>
      <trkpt lat="50.521568" lon="6.252819">
        <ele>0.000000</ele>
        <time>2009-09-18T15:10:20Z</time>
      </trkpt>
      <trkpt lat="50.521790" lon="6.252970">
        <ele>0.000000</ele>
        <time>2009-09-18T15:10:20Z</time>
      </trkpt>
      <trkpt lat="50.522141" lon="6.253345">
        <ele>0.000000</ele>
        <time>2009-09-18T15:10:20Z</time>
      </trkpt>
      <trkpt lat="50.522673" lon="6.253946">
        <ele>0.000000</ele>
        <time>2009-09-18T15:10:20Z</time>
      </trkpt>
    </trkseg>
  </trk>

</gpx>
